Flag for U.S.A. Weather past 2 weeks in Cleveland, Tennessee, U.S.A.

Now
75 °F

Partly cloudy.


Feels Like: 77 °F
Forecast: 62 / 83 °F
Wind: 6 mph from South

Location: Lovell Field

Current Time: Sep 19, 2014 at 11:57:13 PM

Latest Report: Sep 19, 2014 at 10:53 PM


Visibility: 10 mi

Pressure: 30.10 "Hg

Humidity: 62%

Dew point: 61 °F

Location of ClevelandLocation

Historic Weather in Cleveland — Graph

°F

Cleveland temperature yesterday

Maximum temperature yesterday: 82 °F (at 3:53 PM)
Minimum temperature yesterday: 61 °F (at 6:53 AM)
Average temperature yesterday: 71 °F

Past Weeks' High & Low Weather Summary

 TemperatureHumidityPressure
High90 °F (Sep 6, 3:53 PM)94% (Sep 6, 6:53 AM)30.22 "Hg (Sep 6, 6:53 AM)
Low61 °F (Sep 18, 6:53 AM)32% (Sep 18, 3:53 PM)29.92 "Hg (Sep 17, 6:53 PM)
Average75 °F73%30.05 "Hg
* Reported Sep 4 10:53 PM — Sep 19 10:53 PM, Cleveland, Weather by CustomWeather, © 2014

Note: Actual official high and low records may vary slightly from our data, if they occured in-between our weather recording intervals... More about our weather records

Advertising

Cleveland weather history for previous 24 hours

 ConditionsComfort  
Time TempWeatherWind HumidityBarometerVisibility
10:53 PM
Sep 19
75 °FPartly cloudy.6 mph62%30.10 "Hg10 mi
9:53 PM76 °FPartly cloudy.7 mph60%30.09 "Hg10 mi
8:53 PM77 °FPartly cloudy.No wind62%30.06 "Hg10 mi
7:53 PM79 °FBroken clouds.5 mph58%30.04 "Hg10 mi
6:53 PM82 °FBroken clouds.6 mph51%30.03 "Hg10 mi
5:53 PM83 °FBroken clouds.5 mph51%30.02 "Hg10 mi
4:53 PM85 °FPartly sunny.7 mph48%30.01 "Hg10 mi
3:53 PM83 °FBroken clouds.5 mph51%30.02 "Hg10 mi
2:53 PM83 °FBroken clouds.5 mph51%30.03 "Hg10 mi
1:53 PM81 °FScattered clouds.7 mph54%30.06 "Hg10 mi
12:53 PM78 °FPassing clouds.3 mph58%30.07 "Hg10 mi
11:53 AM75 °FPassing clouds.No wind60%30.08 "Hg10 mi
10:53 AM72 °FPassing clouds.No wind64%30.09 "Hg10 mi
9:53 AM68 °FPartly sunny.6 mph70%30.09 "Hg10 mi
8:53 AM67 °FScattered clouds.7 mph73%30.08 "Hg10 mi
7:53 AM64 °FPassing clouds.3 mph81%30.06 "Hg10 mi
6:53 AM65 °FPartly cloudy.3 mph81%30.04 "Hg10 mi
5:53 AM65 °FPartly cloudy.No wind81%30.03 "Hg10 mi
4:53 AM64 °FClear.3 mph84%30.01 "Hg10 mi
3:53 AM66 °FPartly cloudy.No wind81%30.01 "Hg10 mi
2:53 AM65 °FPassing clouds.5 mph85%30.02 "Hg10 mi
1:53 AM65 °FPassing clouds.3 mph85%30.02 "Hg10 mi
12:53 AM67 °FClear.No wind81%30.01 "Hg10 mi
11:53 PM
Sep 18
68 °FPassing clouds.No wind76%30.01 "Hg10 mi
Weather by CustomWeather, © 2014

See weather overviewHow to use our weather pages